Weather History for Fairfield, CA

Change the Weather History Date:

Monday, February 25, 2013

  Actual Average Record
Temperature  
Mean Temperature 49 °F -  
Max Temperature 62 °F 59 °F 73 °F (1997)
Min Temperature 36 °F 41 °F 32 °F (2012)
Degree Days  
Heating Degree Days 16    
Moisture  
Dew Point 40 °F    
Average Humidity 77    
Maximum Humidity 100    
Minimum Humidity 44    
Precipitation  
Precipitation 0.00 in - - ()
Sea Level Pressure  
Sea Level Pressure 30.23 in    
Wind  
Wind Speed 9 mph (WSW)    
Max Wind Speed 15 mph    
Max Gust Speed -    
Visibility 10 miles    
Events      
Averages and records for this station are not official NWS values.
T = Trace of Precipitation, MM = Missing Value Source: NWS Daily Summary

Daily Weather History Graph

Daily Weather History Graph

Search for Another Location

Airport:

Trip Planner

Search our weather history database for the weather conditions in past years. The results will help you decide how hot, cold, wet, or windy it might be!

Date:

Astronomy

Feb. 25, 2013 Rise Set
Actual Time 6:44 AM PST 5:57 PM PST
Civil Twilight 6:18 AM PST 6:23 PM PST
Nautical Twilight 5:47 AM PST 6:54 PM PST
Astronomical Twilight 5:17 AM PST 7:25 PM PST
Moon 6:15 PM PST (2/25) 6:18 AM PST (2/25)
Length of Visible Light 12h 05m
Length of Day
11h 12m
Full, 100% of the Moon is Illuminated
Feb 25
Full
Feb 25
Full
Mar 4
Last Quarter
Mar 11
New
Mar 19
First Quarter

Hourly Weather History & Observations

Time (PST) Temp. Windchill Dew Point Humidity Pressure Visibility Wind Dir Wind Speed Gust Speed Precip Events Conditions
12:58 AM 41.5 °F 35.4 °F 39.0 °F 91% 30.25 in 10.0 mi WSW 10.4 mph - N/A   Clear
1:58 AM 46.9 °F - 45.0 °F 93% 30.25 in 10.0 mi WSW 9.2 mph - N/A   Clear
2:58 AM 42.6 °F 36.8 °F 42.4 °F 99% 30.25 in 9.0 mi WSW 10.4 mph - N/A   Clear
3:58 AM 38.5 °F 32.1 °F 38.5 °F 100% 30.25 in 8.0 mi South 9.2 mph - N/A   Clear
4:58 AM 37.4 °F 32.8 °F 37.2 °F 99% 30.25 in 10.0 mi South 5.8 mph - N/A   Clear
5:58 AM 36.5 °F 33.9 °F 36.5 °F 100% 30.26 in 10.0 mi SW 3.5 mph - N/A   Partly Cloudy
6:58 AM 42.3 °F 35.5 °F 42.3 °F 100% 30.26 in 8.0 mi WSW 12.7 mph - N/A   Clear
7:58 AM 45.1 °F 39.1 °F 44.8 °F 99% 30.26 in 10.0 mi SW 12.7 mph - N/A   Clear
8:58 AM 50.0 °F - 46.6 °F 88% 30.25 in 10.0 mi SW 10.4 mph - N/A   Clear
9:58 AM 53.4 °F - 43.3 °F 69% 30.25 in 10.0 mi WSW 9.2 mph - N/A   Clear
10:58 AM 56.5 °F - 43.3 °F 61% 30.25 in 10.0 mi Variable 1.2 mph - N/A   Clear
11:55 AM 57.6 °F - 42.8 °F 58% 30.24 in 10.0 mi Variable 4.6 mph - N/A   Clear
12:58 PM 60.3 °F - 41.5 °F 50% 30.23 in 10.0 mi North 8.1 mph - N/A   Clear
1:58 PM 61.3 °F - 43.2 °F 51% 30.23 in 10.0 mi North 10.4 mph - N/A   Clear
2:58 PM 61.9 °F - 42.3 °F 49% 30.22 in 10.0 mi NNE 15.0 mph - N/A   Clear
3:58 PM 62.6 °F - 41.4 °F 46% 30.20 in 10.0 mi NNE 15.0 mph - N/A   Clear
4:58 PM 60.8 °F - 38.7 °F 44% 30.18 in 10.0 mi North 8.1 mph - N/A   Clear
5:58 PM 54.5 °F - 35.2 °F 48% 30.18 in 10.0 mi NNE 10.4 mph - N/A   Clear
6:58 PM 46.6 °F - 35.8 °F 66% 30.19 in 10.0 mi Calm Calm - N/A   Clear
7:58 PM 44.6 °F 42.2 °F 33.3 °F 64% 30.19 in 10.0 mi WSW 4.6 mph - N/A   Clear
8:58 PM 42.8 °F 41.1 °F 37.2 °F 81% 30.20 in 10.0 mi WSW 3.5 mph - N/A   Clear
9:58 PM 42.3 °F 37.9 °F 39.0 °F 88% 30.20 in 10.0 mi West 6.9 mph - N/A   Clear
10:58 PM 39.0 °F 34.8 °F 38.1 °F 97% 30.20 in 10.0 mi WSW 5.8 mph - N/A   Clear
11:58 PM 39.9 °F 33.4 °F 39.6 °F 99% 30.20 in 10.0 mi WSW 10.4 mph - N/A   Clear